CW5988 Weather Reports


time (UTC)temp
F
wind
direction
speed
knots
gust
knots
rain 1hr
in
rain 24hr
in
rain mn
in
humidity
%
barometer
mb
20260505014429 57 259 7.0 13.9 0.00 0.00 0.00 79 1015.0
20260505013917 57 277 8.7 13.9 0.00 0.00 0.00 79 1014.9
20260505013440 57 275 7.0 14.8 0.00 0.00 0.00 79 1015.0
20260505012952 57 270 9.6 17.4 0.00 0.00 0.00 79 1015.0
20260505012420 57 298 10.4 17.4 0.00 0.00 0.00 79 1014.9
20260505011928 58 254 6.1 13.9 0.00 0.00 0.00 79 1014.9
20260505011436 58 296 7.8 13.9 0.00 0.00 0.00 79 1014.9
20260505010943 58 263 6.1 13.0 0.00 0.00 0.00 79 1015.0
20260505010430 58 282 8.7 13.9 0.00 0.00 0.00 79 1015.0
20260505005930 58 292 7.8 16.5 0.00 0.00 0.00 79 1015.1
20260505005416 58 277 6.1 16.5 0.00 0.00 0.00 79 1015.2
20260505004923 58 273 7.0 12.2 0.00 0.00 0.00 79 1015.1
20260505004428 58 270 7.0 14.8 0.00 0.00 0.00 79 1015.2
20260505003934 58 271 7.0 14.8 0.00 0.00 0.00 79 1015.3
20260505003419 58 277 4.3 13.0 0.00 0.00 0.00 79 1015.3
20260505002946 58 273 7.0 13.9 0.00 0.00 0.00 78 1015.2
20260505002427 58 240 7.8 15.6 0.00 0.00 0.00 78 1015.3
20260505001935 58 287 8.7 15.6 0.00 0.00 0.00 78 1015.4
20260505001442 58 243 7.0 17.4 0.00 0.00 0.00 78 1015.3
20260505000927 58 277 8.7 17.4 0.00 0.00 0.00 77 1015.3
20260505000435 59 305 7.8 13.0 0.00 0.00 0.00 77 1015.3
20260504235923 59 151 6.1 13.0 0.00 0.00 0.00 77 1015.2
20260504235449 59 284 4.3 11.3 0.00 0.00 0.00 77 1015.3
20260504234930 59 262 5.2 12.2 0.00 0.00 0.00 77 1015.2
20260504234417 59 261 6.1 12.2 0.00 0.00 0.00 77 1015.2
20260504233923 59 306 6.1 13.0 0.00 0.00 0.00 77 1015.2
20260504233430 59 243 5.2 13.0 0.00 0.00 0.00 77 1015.1
20260504232917 59 270 7.0 13.0 0.00 0.00 0.00 76 1015.2
20260504232424 59 263 6.1 11.3 0.00 0.00 0.00 76 1015.2
20260504231928 59 249 5.2 10.4 0.00 0.00 0.00 76 1015.3
20260504231431 59 308 3.5 13.0 0.00 0.00 0.00 75 1015.2
20260504230949 59 268 7.0 13.0 0.00 0.00 0.00 75 1015.2
20260504230435 60 275 6.1 12.2 0.00 0.00 0.00 74 1015.2
20260504225921 59 236 5.2 10.4 0.00 0.00 0.00 75 1015.2
20260504225448 60 302 6.1 11.3 0.00 0.00 0.00 75 1015.2
20260504224933 60 287 6.1 11.3 0.00 0.00 0.00 74 1015.3
20260504224418 60 284 4.3 11.3 0.00 0.00 0.00 74 1015.3
20260504223919 60 282 6.1 12.2 0.00 0.00 0.00 74 1015.3
20260504223425 60 207 4.3 13.9 0.00 0.00 0.00 74 1015.3
20260504222932 60 263 5.2 13.9 0.00 0.00 0.00 73 1015.4
20260504222440 61 288 5.2 12.2 0.00 0.00 0.00 73 1015.4
20260504221924 61 276 5.2 13.0 0.00 0.00 0.00 73 1015.2
20260504221431 61 273 6.1 16.5 0.00 0.00 0.00 72 1015.3
20260504220936 61 268 8.7 15.6 0.00 0.00 0.00 71 1015.4
20260504220419 61 208 8.7 15.6 0.00 0.00 0.00 71 1015.4
20260504215925 61 268 8.7 15.6 0.00 0.00 0.00 72 1015.4
20260504215457 61 314 7.8 14.8 0.00 0.00 0.00 72 1015.3
20260504214923 61 298 7.8 13.9 0.00 0.00 0.00 71 1015.3
20260504214430 61 283 7.8 13.9 0.00 0.00 0.00 70 1015.2
20260504213935 61 292 6.1 15.6 0.00 0.00 0.00 71 1015.2
20260504213422 61 303 9.6 15.6 0.00 0.00 0.00 71 1015.3
20260504212924 61 294 10.4 15.6 0.00 0.00 0.00 70 1015.3
20260504212430 62 277 6.1 13.9 0.00 0.00 0.00 70 1015.4
20260504211918 62 306 5.2 12.2 0.00 0.00 0.00 70 1015.5
20260504211427 61 318 7.8 12.2 0.00 0.00 0.00 70 1015.5
20260504210934 61 271 7.0 13.9 0.00 0.00 0.00 70 1015.5
20260504210419 61 244 7.8 13.9 0.00 0.00 0.00 70 1015.5
20260504205946 61 277 7.0 13.9 0.00 0.00 0.00 71 1015.6
20260504205429 61 274 4.3 12.2 0.00 0.00 0.00 71 1015.6
20260504204936 60 279 7.8 14.8 0.00 0.00 0.00 71 1015.6
20260504204425 61 250 8.7 14.8 0.00 0.00 0.00 70 1015.6
20260504203930 61 280 8.7 14.8 0.00 0.00 0.00 70 1015.7
20260504203436 61 282 8.7 14.8 0.00 0.00 0.00 70 1015.6
20260504202921 61 263 7.0 13.0 0.00 0.00 0.00 71 1015.6
20260504202427 61 277 7.0 14.8 0.00 0.00 0.00 71 1015.5
20260504201936 61 230 8.7 14.8 0.00 0.00 0.00 70 1015.5
20260504201418 62 306 7.8 14.8 0.00 0.00 0.00 69 1015.4
20260504200924 62 238 6.1 13.0 0.00 0.00 0.00 69 1015.4
20260504200431 61 240 6.1 13.0 0.00 0.00 0.00 68 1015.6
20260504195916 62 245 6.1 12.2 0.00 0.00 0.00 69 1015.6
20260504195424 62 248 6.1 12.2 0.00 0.00 0.00 70 1015.7
20260504194931 61 275 4.3 13.0 0.00 0.00 0.00 70 1015.6
20260504194435 61 326 6.1 13.0 0.00 0.00 0.00 70 1015.7
20260504193950 61 282 7.0 11.3 0.00 0.00 0.00 72 1015.8
20260504193435 61 230 6.1 13.0 0.00 0.00 0.00 72 1015.8
20260504192921 61 287 7.0 13.0 0.00 0.00 0.00 73 1015.6
20260504192427 61 254 7.8 13.0 0.00 0.00 0.00 73 1015.5
20260504191934 61 254 5.2 13.9 0.00 0.00 0.00 73 1015.7
20260504191452 61 321 6.1 12.2 0.00 0.00 0.00 74 1015.8
20260504190921 61 323 5.2 12.2 0.00 0.00 0.00 73 1015.9
20260504190428 60 259 4.3 13.9 0.00 0.00 0.00 74 1015.9
20260504185921 60 247 7.8 13.9 0.00 0.00 0.00 74 1015.8
20260504185431 61 256 6.1 13.9 0.00 0.00 0.00 74 1015.8
20260504184917 61 278 7.0 13.9 0.00 0.00 0.00 72 1015.9
20260504184423 61 230 4.3 12.2 0.00 0.00 0.00 73 1015.8
20260504183949 61 276 5.2 11.3 0.00 0.00 0.00 73 1015.8
20260504183437 61 225 7.0 12.2 0.00 0.00 0.00 73 1015.7
20260504182924 60 264 8.7 12.2 0.00 0.00 0.00 72 1015.7
20260504182424 61 275 6.1 11.3 0.00 0.00 0.00 73 1015.8
20260504181929 61 230 4.3 14.8 0.00 0.00 0.00 74 1015.6
20260504181432 61 261 9.6 14.8 0.00 0.00 0.00 73 1015.7
20260504180921 61 206 5.2 13.0 0.00 0.00 0.00 74 1015.8
20260504180427 60 244 3.5 13.0 0.00 0.00 0.00 73 1015.8
20260504175931 61 256 7.0 12.2 0.00 0.00 0.00 73 1015.6
20260504175419 60 208 6.1 9.6 0.00 0.00 0.00 73 1015.6
20260504174921 60 284 5.2 10.4 0.00 0.00 0.00 74 1015.5
20260504174430 60 251 5.2 13.0 0.00 0.00 0.00 74 1015.5
20260504173916 60 273 7.0 13.0 0.00 0.00 0.00 72 1015.4
20260504173420 60 268 4.3 9.6 0.00 0.00 0.00 73 1015.4
20260504172945 60 288 5.2 11.3 0.00 0.00 0.00 73 1015.4
20260504172431 61 282 7.0 11.3 0.00 0.00 0.00 71 1015.3
20260504171917 61 273 5.2 11.3 0.00 0.00 0.00 72 1015.3
20260504171417 61 185 4.3 7.8 0.00 0.00 0.00 72 1015.3
20260504170942 60 272 3.5 9.6 0.00 0.00 0.00 72 1015.2
20260504170429 60 268 3.5 12.2 0.00 0.00 0.00 72 1015.0
20260504160434 58 249 3.5 7.8 0.00 0.00 0.00 77 1015.1
20260504150927 59 346 1.7 2.6 0.00 0.00 0.00 80 1014.9
20260504150431 58 160 0.9 3.5 0.00 0.00 0.00 81 1014.9
20260504140918 55 209 1.7 3.5 0.00 0.00 0.00 85 1014.8
20260504140426 55 227 0.9 3.5 0.00 0.00 0.00 85 1014.8
20260504130424 54 194 2.6 3.5 0.00 0.00 0.00 85 1014.3
20260504110423 55 244 1.7 5.2 0.00 0.00 0.00 85 1014.2
20260504100429 55 196 1.7 5.2 0.00 0.00 0.00 85 1014.2
20260504081921 55 191 2.6 7.8 0.00 0.00 0.00 84 1014.6
20260504081424 55 230 3.5 7.8 0.00 0.00 0.00 84 1014.4
20260504080930 55 249 2.6 8.7 0.00 0.00 0.00 84 1014.5
20260504080436 55 247 3.5 8.7 0.00 0.00 0.00 84 1014.6
20260504050438 56 277 5.2 12.2 0.00 0.00 0.00 83 1014.3
20260504045951 56 249 6.1 13.0 0.00 0.00 0.00 83 1014.1
20260504045436 56 210 6.1 13.0 0.00 0.00 0.00 83 1014.1
20260504044938 56 273 6.1 11.3 0.00 0.00 0.00 83 1014.0
20260504044425 56 236 7.0 11.3 0.00 0.00 0.00 83 1014.0
20260504043933 56 270 6.1 11.3 0.00 0.00 0.00 83 1014.0
20260504043421 56 240 4.3 13.0 0.00 0.00 0.00 83 1013.9
20260504042956 56 255 7.0 13.0 0.00 0.00 0.00 83 1013.9
20260504042451 56 237 5.2 12.2 0.00 0.00 0.00 83 1013.7
20260504041935 56 225 5.2 12.2 0.00 0.00 0.00 83 1013.8
20260504041419 56 263 6.1 13.0 0.00 0.00 0.00 83 1013.7
20260504040925 56 292 5.2 13.0 0.00 0.00 0.00 82 1013.6
20260504040434 56 306 6.1 13.0 0.00 0.00 0.00 82 1013.6
20260504035919 56 263 7.8 14.8 0.00 0.00 0.00 82 1013.5
20260504035424 56 233 7.0 13.0 0.00 0.00 0.00 81 1013.4
20260504034932 56 240 6.1 12.2 0.00 0.00 0.00 81 1013.3
20260504034419 56 247 5.2 10.4 0.00 0.00 0.00 81 1013.2
20260504033926 56 245 6.1 11.3 0.00 0.00 0.00 81 1013.1
20260504033431 56 261 5.2 13.0 0.00 0.00 0.00 81 1013.1
20260504032937 56 226 6.1 13.0 0.00 0.00 0.00 80 1013.1
20260504032425 56 216 6.1 13.9 0.00 0.00 0.00 80 1012.9
20260504031932 56 251 6.1 13.9 0.00 0.00 0.00 79 1012.9
20260504031418 56 233 7.0 13.9 0.00 0.00 0.00 79 1013.0
20260504030946 56 222 7.0 13.9 0.00 0.00 0.00 79 1013.0
20260504030431 56 237 7.8 13.0 0.00 0.00 0.00 79 1013.0
20260504025932 57 261 7.0 14.8 0.00 0.00 0.00 79 1013.0
20260504025441 57 260 5.2 14.8 0.00 0.00 0.00 78 1013.0
20260504024946 57 228 6.1 16.5 0.00 0.00 0.00 78 1013.0
20260504024431 57 228 8.7 16.5 0.00 0.00 0.00 77 1012.9
20260504023919 57 261 7.0 13.0 0.00 0.00 0.00 77 1012.8
20260504023426 57 224 7.0 13.9 0.00 0.00 0.00 77 1012.8
20260504022929 57 222 7.0 13.9 0.00 0.00 0.00 78 1012.9
20260504022435 57 263 7.8 14.8 0.00 0.00 0.00 77 1012.9
20260504021922 58 284 6.1 11.3 0.00 0.00 0.00 78 1012.8
20260504021431 58 310 5.2 13.0 0.00 0.00 0.00 78 1012.8
20260504020918 58 260 6.1 12.2 0.00 0.00 0.00 77 1012.7
20260504020455 58 234 6.1 13.9 0.00 0.00 0.00 77 1012.7
20260504015941 58 235 6.1 13.9 0.00 0.00 0.00 77 1012.8
20260504015424 58 251 6.1 12.2 0.00 0.00 0.00 77 1012.8
20260504014932 59 259 5.2 12.2 0.00 0.00 0.00 77 1012.8